Location: San Gennaro Vesuviano
(40.8833°N, 14.5333°E)
Time: 21:43:36
(UTC+00:00)

Lacrosse 5 rocket - Pass Details

Date: 22 April 2021
Orbit: 460 x 634 km, 57.0° (Epoch: 10 May)

Event Time Altitude Azimuth Distance (km) Brightness Sun altitude
Rises 22:22:46 0° 317° (NW) 2,816 5.7 -35.9°
Reaches altitude 10° 22:25:00 10° 320° (NW) 1,938 4.7 -36.0°
Enters shadow 22:25:37 14° 322° (NW) 1,703 4.4 -36.0°
